Weather History for Wilmington, NC

Change the Weather History Date:

Tuesday, February 26, 2013

  Actual Average Record
Temperature  
Mean Temperature 56 °F 51 °F  
Max Temperature 69 °F 62 °F 83 °F (1977)
Min Temperature 43 °F 40 °F 19 °F (1967)
Degree Days  
Heating Degree Days 9 14  
Month to date heating degree days 457 426  
Since 1 July heating degree days 1781 1901  
Cooling Degree Days 0 0  
Month to date cooling degree days 0 0  
Year to date cooling degree days 12 2  
Growing Degree Days 6 (Base 50)    
Moisture  
Dew Point 55 °F    
Average Humidity 84    
Maximum Humidity 100    
Minimum Humidity 67    
Precipitation  
Precipitation 1.64 in 0.13 in 1.64 in (2013)
Month to date precipitation 5.14 3.36  
Year to date precipitation 7.27 7.12  
Snow  
Snow 0.00 in 0.00 in 0.20 in (1970)
Month to date snowfall T 0.3  
Since 1 July snowfall T 1.5  
Snow Depth 0.00 in    
Sea Level Pressure  
Sea Level Pressure 29.79 in    
Wind  
Wind Speed 13 mph (SE)    
Max Wind Speed 23 mph    
Max Gust Speed 35 mph    
Visibility 6 miles    
Events Rain    
T = Trace of Precipitation, MM = Missing Value Source: NWS Daily Summary

Daily Weather History Graph

Daily Weather History Graph

Search for Another Location

Airport:

Trip Planner

Search our weather history database for the weather conditions in past years. The results will help you decide how hot, cold, wet, or windy it might be!

Date:

Astronomy

Feb. 26, 2013 Rise Set
Actual Time 6:43 AM EST 6:05 PM EST
Civil Twilight 6:18 AM EST 6:30 PM EST
Nautical Twilight 5:49 AM EST 6:59 PM EST
Astronomical Twilight 5:20 AM EST 7:28 PM EST
Moon 7:14 PM EST (2/26) 6:49 AM EST (2/26)
Length of Visible Light 12h 12m
Length of Day
11h 21m
Full, 99% of the Moon is Illuminated
Feb 26
Full
Mar 4
Last Quarter
Mar 11
New
Mar 19
First Quarter
Mar 27
Full

Hourly Weather History & Observations

Time (EST) Temp. Windchill Dew Point Humidity Pressure Visibility Wind Dir Wind Speed Gust Speed Precip Events Conditions
12:53 AM 43.0 °F 38.2 °F 32.0 °F 65% 30.07 in 10.0 mi NE 8.1 mph - N/A   Overcast
1:51 AM 42.8 °F 38.0 °F 33.8 °F 70% 30.05 in 10.0 mi NE 8.1 mph - N/A   Overcast
1:53 AM 43.0 °F 38.8 °F 33.1 °F 68% 30.05 in 10.0 mi NE 6.9 mph - N/A   Overcast
2:53 AM 43.0 °F 39.5 °F 35.1 °F 74% 30.03 in 10.0 mi NE 5.8 mph - N/A   Overcast
3:16 AM 42.8 °F 38.6 °F 35.6 °F 76% 30.01 in 10.0 mi NE 6.9 mph - N/A   Overcast
3:53 AM 44.1 °F 40.8 °F 37.9 °F 79% 29.99 in 10.0 mi NE 5.8 mph - N/A   Overcast
4:53 AM 46.9 °F - 42.1 °F 83% 29.99 in 9.0 mi ENE 8.1 mph - N/A   Overcast
5:53 AM 50.0 °F - 46.0 °F 86% 29.95 in 10.0 mi ENE 13.8 mph 19.6 mph 0.00 in Rain Light Rain
6:53 AM 52.0 °F - 48.9 °F 89% 29.95 in 7.0 mi ENE 10.4 mph - 0.02 in Rain Light Rain
7:02 AM 51.8 °F - 48.2 °F 88% 29.95 in 8.0 mi ENE 12.7 mph 20.7 mph 0.00 in Rain Light Rain
7:08 AM 51.8 °F - 48.2 °F 88% 29.95 in 6.0 mi East 11.5 mph - 0.00 in Rain Light Rain
7:20 AM 53.6 °F - 50.0 °F 88% 29.94 in 5.0 mi ENE 10.4 mph - 0.01 in Rain Light Rain
7:41 AM 53.6 °F - 51.8 °F 94% 29.94 in 2.5 mi ENE 12.7 mph 19.6 mph N/A Rain Rain
7:53 AM 54.0 °F - 52.0 °F 93% 29.93 in 3.0 mi ENE 12.7 mph 20.7 mph 0.07 in Rain Rain
8:02 AM 53.6 °F - 53.6 °F 100% 29.92 in 2.5 mi ENE 13.8 mph 20.7 mph 0.01 in Rain Light Rain
8:53 AM 55.9 °F - 55.0 °F 97% 29.92 in 2.5 mi ENE 16.1 mph 23.0 mph 0.07 in Rain Light Rain
9:53 AM 57.9 °F - 55.9 °F 93% 29.88 in 2.0 mi East 17.3 mph 25.3 mph 0.12 in Rain Rain
10:38 AM 59.0 °F - 57.2 °F 94% 29.85 in 3.0 mi East 16.1 mph 26.5 mph 0.15 in Rain Light Rain
10:53 AM 59.0 °F - 57.0 °F 93% 29.85 in 2.5 mi East 15.0 mph 23.0 mph 0.19 in Rain Heavy Rain
11:30 AM 60.8 °F - 57.2 °F 88% 29.83 in 1.5 mi East 12.7 mph 25.3 mph 0.22 in Rain Heavy Rain
11:53 AM 61.0 °F - 59.0 °F 93% 29.80 in 1.8 mi ESE 18.4 mph 33.4 mph 0.42 in Rain Heavy Rain
12:53 PM 63.0 °F - 61.0 °F 93% 29.73 in 1.8 mi SE 17.3 mph 32.2 mph 0.30 in Rain Rain
1:21 PM 62.6 °F - 60.8 °F 94% 29.70 in 2.5 mi SE 19.6 mph 34.5 mph 0.08 in Rain Rain
1:42 PM 64.4 °F - 62.6 °F 94% 29.70 in 1.2 mi SE 18.4 mph 27.6 mph 0.15 in Rain Heavy Rain
1:53 PM 64.0 °F - 62.1 °F 93% 29.70 in 2.5 mi SSE 17.3 mph 28.8 mph 0.24 in Rain Light Rain
2:17 PM 64.4 °F - 62.6 °F 94% 29.70 in 1.2 mi SSE 15.0 mph 33.4 mph 0.12 in Rain Heavy Rain
2:29 PM 64.4 °F - 62.6 °F 94% 29.69 in 2.0 mi SSE 18.4 mph 32.2 mph 0.18 in Rain Light Rain
2:38 PM 64.4 °F - 62.6 °F 94% 29.68 in 5.0 mi SSE 18.4 mph 31.1 mph 0.19 in Rain Light Rain
2:53 PM 64.9 °F - 63.0 °F 93% 29.68 in 9.0 mi South 15.0 mph 32.2 mph 0.19 in   Overcast
3:53 PM 66.0 °F - 64.0 °F 93% 29.63 in 7.0 mi SSE 10.4 mph 24.2 mph 0.01 in   Overcast
4:01 PM 66.2 °F - 62.6 °F 88% 29.63 in 6.0 mi SSE 13.8 mph 20.7 mph N/A   Overcast
4:30 PM 66.2 °F - 62.6 °F 88% 29.62 in 7.0 mi South 16.1 mph 25.3 mph N/A   Overcast
4:53 PM 66.9 °F - 63.0 °F 87% 29.62 in 7.0 mi South 17.3 mph 26.5 mph N/A   Overcast
5:06 PM 66.2 °F - 62.6 °F 88% 29.62 in 6.0 mi South 16.1 mph 25.3 mph N/A   Overcast
5:13 PM 66.2 °F - 62.6 °F 88% 29.62 in 6.0 mi South 15.0 mph 23.0 mph N/A   Overcast
5:42 PM 66.2 °F - 64.4 °F 94% 29.62 in 6.0 mi South 15.0 mph - N/A   Overcast
5:49 PM 68.0 °F - 64.4 °F 88% 29.61 in 6.0 mi South 16.1 mph - N/A   Overcast
5:53 PM 68.0 °F - 64.0 °F 87% 29.62 in 7.0 mi South 16.1 mph - N/A   Overcast
6:39 PM 68.0 °F - 64.4 °F 88% 29.61 in 8.0 mi South 12.7 mph 18.4 mph 0.01 in   Overcast
6:53 PM 68.0 °F - 64.9 °F 90% 29.62 in 8.0 mi South 10.4 mph - 0.01 in   Overcast
7:53 PM 68.0 °F - 63.0 °F 84% 29.62 in 10.0 mi SSW 17.3 mph 29.9 mph N/A   Mostly Cloudy
8:53 PM 66.0 °F - 62.1 °F 87% 29.63 in 10.0 mi SW 12.7 mph 29.9 mph N/A   Scattered Clouds
9:53 PM 64.0 °F - 60.1 °F 87% 29.64 in 10.0 mi SW 10.4 mph - N/A   Clear
10:53 PM 64.0 °F - 55.9 °F 75% 29.65 in 10.0 mi WSW 13.8 mph 19.6 mph N/A   Clear
11:53 PM 61.0 °F - 55.9 °F 83% 29.65 in 10.0 mi West 10.4 mph - N/A   Partly Cloudy